Location: Ethel Rock
(53.4667°N, 4.5667°W)
Time: 00:59:40
(UTC+00:00)

ADEOS II - Pass Details

Date: 24 October 2020
Orbit: 800 x 800 km, 98.5° (Epoch: 26 November)

Event Time Altitude Azimuth Distance (km) Brightness Sun altitude
Rises 04:18:05 0° 9° (N) 3,325 5.6 -25.0°
Reaches altitude 10° 04:20:46 10° 357° (N) 2,390 4.7 -24.6°
Enters shadow 04:23:27 22° 330° (NNW) 1,693 3.6 -24.2°
